Location: Laverne
(36.7100°N, 99.8930°W)
Time: 21:59:53
(UTC-06:00)

Cosmos 2297 Rocket - Pass Details

Date: 19 October 2017
Orbit: 841 x 842 km, 71.0° (Epoch: 24 November)

Event Time Altitude Azimuth Distance (km) Brightness Sun altitude
Rises 06:42:31 0° 347° (NNW) 3,402 5.2 -14.4°
Reaches altitude 10° 06:45:14 10° 358° (N) 2,464 4.6 -13.9°
Maximum altitude 06:50:16 32° 60° (ENE) 1,405 4.0 -12.9°
Drops below altitude 10° 06:55:16 10° 123° (ESE) 2,452 5.6 -11.9°
Sets 06:57:57 0° 133° (SE) 3,383 6.2 -11.3°
